Starlink 31255

operational
NORAD ID: 58893 Int'l Des: 2024-020 Owner: SPXS Country: US Constellation: starlink
LEOCIRCULAR

Über Starlink 31255

Beschreibung wird geladen...

Live-Position

3D-Globus wird geladen...

Nächste Überflüge

Höhenverlauf

Altitude vs Time

uPlot chart will show altitude changes over time

Zweizeiliger Elementsatz

1 58893U 24020T 25352.26610193 .00000062 00000-0 14206-4 0 9991
2 58893 53.1610 340.7039 0001106 75.9344 284.1780 15.30197379105604
Epoch: 18. Dez. 2025 • Age: 18 hours

Aktueller Status

Höhe 477.0 km
Geschwindigkeit 7.63 km/s
Subsatellitenpunkt 32.65°N, 37.44°E
Startdatum 29. Jan. 2024
Alter 1.8 years
Typ internet

Technische Details

Klassifizierung Payload
Masse 730.00 kg
Trockenmasse 700.00 kg
Gesamtmasse 730.00 kg
Länge 0.30 m
Durchmesser 4.10 m
Spannweite 29.00 m
Form Box + pan
Hersteller SPXS
Bus-Typ Starlink V2M
Phasenstatus In Orbit
Besitzer/Staat SPXS/US

Große Konstellationen

Loading constellations...